When you browse on this site, cookies collect data to enhance your experience and personalize the content and advertising you see.
Visit our Privacy Policy to learn more. By continuing to use the site, you agree to this use of cookies and data.
  • In Lithuania
  • List of Countries
  • For 7 days
  • Water Temperature
  • Satellite Maps
  • Weather Map
  • Weather Widgets
  • user-avatar
    Login

    Hourly Weather Porabu

    Today, 21 February, Thursday

    Time Temperature Precipitation Wind Pressure Humidity
    00:00 +26°C° 0 mm 2 mps 757 mmHg 92%
    01:00 +26°C° 0 mm 1 mps 756 mmHg 95%
    02:00 +26°C° 0 mm 1 mps 756 mmHg 95%
    03:00 +26°C° 0 mm 1 mps 756 mmHg 95%
    04:00 +25°C° 0 mm 1 mps 756 mmHg 95%
    05:00 +25°C° 0 mm 1 mps 756 mmHg 95%
    06:00 +25°C° 0 mm 1 mps 756 mmHg 95%
    07:00 +26°C° 0 mm 1 mps 756 mmHg 93%
    08:00 +28°C° 0 mm 2 mps 756 mmHg 85%
    09:00 +30°C° 0 mm 2 mps 757 mmHg 76%
    10:00 +31°C° 0 mm 3 mps 757 mmHg 68%
    11:00 +33°C° 0.1 mm 3 mps 756 mmHg 65%
    12:00 +34°C° 0.1 mm 4 mps 756 mmHg 63%
    13:00 +34°C° 0 mm 5 mps 756 mmHg 59%
    14:00 +34°C° 0 mm 5 mps 755 mmHg 60%
    15:00 +34°C° 0 mm 5 mps 755 mmHg 60%
    16:00 +34°C° 0 mm 5 mps 754 mmHg 60%
    17:00 +32°C° 0 mm 4 mps 754 mmHg 67%
    18:00 +30°C° 0 mm 3 mps 754 mmHg 74%
    19:00 +28°C° 0 mm 3 mps 754 mmHg 81%
    20:00 +28°C° 0 mm 3 mps 755 mmHg 84%
    21:00 +27°C° 0 mm 3 mps 755 mmHg 87%
    22:00 +27°C° 0 mm 2 mps 756 mmHg 89%
    23:00 +27°C° 0 mm 2 mps 756 mmHg 91%

    Tomorrow, 22 February, Friday

    Time Temperature Precipitation Wind Pressure Humidity
    00:00 +26°C° 0 mm 2 mps 756 mmHg 92%
    01:00 +26°C° 0 mm 2 mps 755 mmHg 94%
    02:00 +26°C° 0 mm 1 mps 755 mmHg 95%
    03:00 +26°C° 0 mm 1 mps 754 mmHg 95%
    04:00 +25°C° 0 mm 1 mps 754 mmHg 96%
    05:00 +25°C° 0 mm 1 mps 754 mmHg 96%
    06:00 +25°C° 0 mm 1 mps 754 mmHg 96%
    07:00 +25°C° 0 mm 1 mps 754 mmHg 96%
    08:00 +28°C° 0 mm 2 mps 755 mmHg 85%
    09:00 +30°C° 0 mm 3 mps 755 mmHg 75%
    10:00 +33°C° 0 mm 3 mps 756 mmHg 64%
    11:00 +34°C° 0 mm 3 mps 755 mmHg 60%
    12:00 +35°C° 0 mm 4 mps 755 mmHg 55%
    13:00 +36°C° 0 mm 4 mps 754 mmHg 51%
    14:00 +36°C° 0 mm 4 mps 754 mmHg 52%
    15:00 +35°C° 0 mm 5 mps 753 mmHg 53%
    16:00 +35°C° 0 mm 5 mps 752 mmHg 54%
    17:00 +33°C° 0 mm 4 mps 752 mmHg 63%
    18:00 +30°C° 0 mm 4 mps 753 mmHg 71%
    19:00 +28°C° 0 mm 3 mps 753 mmHg 79%
    20:00 +28°C° 0 mm 3 mps 753 mmHg 82%
    21:00 +27°C° 0 mm 3 mps 754 mmHg 84%
    22:00 +27°C° 0 mm 2 mps 755 mmHg 87%
    23:00 +27°C° 0 mm 2 mps 755 mmHg 88%

    Day after tomorrow, 23 February, Saturday

    Time Temperature Precipitation Wind Pressure Humidity
    00:00 +26°C° 0 mm 2 mps 755 mmHg 90%
    01:00 +26°C° 0 mm 2 mps 755 mmHg 91%
    02:00 +26°C° 0 mm 2 mps 754 mmHg 92%
    03:00 +26°C° 0 mm 1 mps 753 mmHg 94%
    04:00 +25°C° 0 mm 1 mps 753 mmHg 95%
    05:00 +25°C° 0 mm 1 mps 753 mmHg 95%
    06:00 +25°C° 0 mm 1 mps 754 mmHg 95%
    07:00 +25°C° 0 mm 1 mps 754 mmHg 95%
    08:00 +27°C° 0 mm 2 mps 754 mmHg 83%
    09:00 +30°C° 0 mm 2 mps 755 mmHg 71%
    10:00 +33°C° 0 mm 3 mps 755 mmHg 59%
    11:00 +34°C° 0 mm 3 mps 755 mmHg 54%
    12:00 +35°C° 0 mm 4 mps 754 mmHg 49%
    13:00 +36°C° 0 mm 4 mps 754 mmHg 44%
    14:00 +36°C° 0 mm 4 mps 753 mmHg 46%
    15:00 +35°C° 0 mm 5 mps 752 mmHg 49%
    16:00 +35°C° 0 mm 5 mps 751 mmHg 52%
    17:00 +33°C° 0 mm 4 mps 752 mmHg 61%
    18:00 +29°C° 0 mm 3 mps 752 mmHg 71%
    19:00 +27°C° 0 mm 3 mps 752 mmHg 80%
    20:00 +27°C° 0 mm 2 mps 753 mmHg 83%
    21:00 +26°C° 0 mm 2 mps 754 mmHg 86%
    22:00 +26°C° 0 mm 2 mps 755 mmHg 89%
    23:00 +26°C° 0 mm 2 mps 755 mmHg 90%

    24 February, Sunday

    Time Temperature Precipitation Wind Pressure Humidity
    00:00 +25°C° 0 mm 2 mps 755 mmHg 91%
    01:00 +25°C° 0 mm 1 mps 754 mmHg 92%
    02:00 +25°C° 0 mm 1 mps 754 mmHg 93%
    03:00 +25°C° 0 mm 1 mps 753 mmHg 94%
    04:00 +24°C° 0 mm 1 mps 753 mmHg 95%
    05:00 +24°C° 0 mm 1 mps 753 mmHg 95%
    06:00 +24°C° 0 mm 1 mps 754 mmHg 95%
    07:00 +24°C° 0 mm 1 mps 754 mmHg 95%
    08:00 +27°C° 0 mm 2 mps 754 mmHg 85%
    09:00 +29°C° 0 mm 3 mps 755 mmHg 74%
    10:00 +31°C° 0 mm 3 mps 755 mmHg 64%
    11:00 +33°C° 0 mm 4 mps 755 mmHg 58%
    12:00 +34°C° 0 mm 4 mps 754 mmHg 53%
    13:00 +36°C° 0 mm 4 mps 754 mmHg 48%
    14:00 +35°C° 0 mm 4 mps 753 mmHg 50%
    15:00 +34°C° 0 mm 4 mps 752 mmHg 51%
    16:00 +34°C° 0 mm 4 mps 751 mmHg 53%
    17:00 +32°C° 0 mm 4 mps 752 mmHg 63%
    18:00 +29°C° 0 mm 3 mps 752 mmHg 72%
    19:00 +27°C° 0 mm 3 mps 753 mmHg 82%
    20:00 +27°C° 0 mm 2 mps 753 mmHg 82%
    21:00 +27°C° 0 mm 2 mps 754 mmHg 82%
    22:00 +26°C° 0 mm 2 mps 755 mmHg 82%
    23:00 +26°C° 0 mm 2 mps 755 mmHg 83%

    25 February, Monday

    Time Temperature Precipitation Wind Pressure Humidity
    00:00 +26°C° 0 mm 2 mps 754 mmHg 84%
    01:00 +25°C° 0 mm 1 mps 754 mmHg 86%
    02:00 +25°C° 0 mm 1 mps 754 mmHg 87%
    03:00 +24°C° 0 mm 1 mps 753 mmHg 89%
    04:00 +24°C° 0 mm 1 mps 753 mmHg 91%
    05:00 +24°C° 0 mm 1 mps 753 mmHg 92%
    06:00 +24°C° 0 mm 1 mps 754 mmHg 92%
    07:00 +24°C° 0 mm 1 mps 754 mmHg 93%
    08:00 +26°C° 0 mm 2 mps 755 mmHg 80%
    09:00 +29°C° 0 mm 2 mps 755 mmHg 68%
    10:00 +31°C° 0 mm 3 mps 756 mmHg 56%
    11:00 +34°C° 0 mm 3 mps 755 mmHg 50%
    12:00 +35°C° 0 mm 4 mps 754 mmHg 45%
    13:00 +36°C° 0 mm 4 mps 753 mmHg 40%
    14:00 +36°C° 0 mm 5 mps 753 mmHg 43%
    15:00 +35°C° 0 mm 5 mps 752 mmHg 46%
    16:00 +35°C° 0 mm 5 mps 752 mmHg 49%
    17:00 +32°C° 0 mm 4 mps 752 mmHg 60%
    18:00 +29°C° 0 mm 4 mps 753 mmHg 71%
    19:00 +27°C° 0 mm 3 mps 753 mmHg 82%
    20:00 +27°C° 0 mm 3 mps 754 mmHg 83%
    21:00 +27°C° 0 mm 3 mps 754 mmHg 84%
    22:00 +26°C° 0 mm 3 mps 755 mmHg 86%
    23:00 +26°C° 0 mm 3 mps 755 mmHg 88%

    26 February, Tuesday

    Time Temperature Precipitation Wind Pressure Humidity
    00:00 +26°C° 0 mm 2 mps 754 mmHg 89%
    01:00 +25°C° 0 mm 2 mps 754 mmHg 91%
    02:00 +25°C° 0 mm 2 mps 754 mmHg 93%
    03:00 +25°C° 0 mm 2 mps 753 mmHg 94%
    04:00 +24°C° 0 mm 2 mps 753 mmHg 96%
    05:00 +24°C° 0 mm 2 mps 753 mmHg 96%
    06:00 +24°C° 0 mm 2 mps 754 mmHg 96%
    07:00 +24°C° 0 mm 2 mps 754 mmHg 96%
    08:00 +26°C° 0 mm 2 mps 755 mmHg 85%
    09:00 +28°C° 0 mm 3 mps 755 mmHg 73%
    10:00 +32°C° 0 mm 4 mps 756 mmHg 62%
    11:00 +33°C° 0 mm 4 mps 755 mmHg 56%
    12:00 +34°C° 0 mm 4 mps 755 mmHg 51%
    13:00 +35°C° 0 mm 4 mps 754 mmHg 45%
    14:00 +35°C° 0 mm 5 mps 753 mmHg 47%
    15:00 +34°C° 0 mm 5 mps 753 mmHg 49%
    16:00 +34°C° 0 mm 5 mps 752 mmHg 51%
    17:00 +32°C° 0 mm 4 mps 753 mmHg 60%
    18:00 +29°C° 0 mm 4 mps 753 mmHg 69%
    19:00 +27°C° 0 mm 3 mps 753 mmHg 78%
    20:00 +26°C° 0 mm 3 mps 754 mmHg 81%
    21:00 +26°C° 0 mm 2 mps 754 mmHg 85%
    22:00 +25°C° 0 mm 2 mps 755 mmHg 88%
    23:00 +25°C° 0 mm 2 mps 755 mmHg 90%
    Show more